Greenville Downtown, SC

7:29 AM EDT on May 25, 2017 (GMT -0400)
Greenville Downtown

Weather History for KGMU - February, 2013

Change the Weather History Date:

Sunday, February 17, 2013

  Actual Average Record
Temperature  
Mean Temperature 36 °F -  
Max Temperature 46 °F 53 °F 70 °F (2017)
Min Temperature 25 °F 36 °F 25 °F (2013)
Degree Days  
Heating Degree Days 30    
Moisture  
Dew Point 6 °F    
Average Humidity 33    
Maximum Humidity 56    
Minimum Humidity 12    
Precipitation  
Precipitation 0.00 in - - ()
Sea Level Pressure  
Sea Level Pressure 30.16 in    
Wind  
Wind Speed 4 mph (WNW)    
Max Wind Speed 14 mph    
Max Gust Speed 22 mph    
Visibility 10 miles    
Events      
Averages and records for this station are not official NWS values.
T = Trace of Precipitation, MM = Missing Value Source: NWS Daily Summary

Daily Weather History Graph

Daily Weather History Graph

Search for Another Location

Airport or City:

Trip Planner

Search our weather history database for the weather conditions in past years. The results will help you decide how hot, cold, wet, or windy it might be!

Date:

Astronomy

Feb. 17, 2013 Rise Set
Actual Time 7:12 AM EST 6:14 PM EST
Civil Twilight 6:46 AM EST 6:40 PM EST
Nautical Twilight 6:17 AM EST 7:09 PM EST
Astronomical Twilight 5:48 AM EST 7:39 PM EST
Moon 11:23 AM EST (2/17) 12:50 AM EST (2/17)
Length of Visible Light 11h 53m
Length of Day
11h 01m
Waxing Crescent, 49% of the Moon is Illuminated
Feb 17
Waxing Crescent
Feb 17
First Quarter
Feb 25
Full
Mar 4
Last Quarter
Mar 11
New

Hourly Weather History & Observations

Time (EST) Temp. Windchill Dew Point Humidity Pressure Visibility Wind Dir Wind Speed Gust Speed Precip Events Conditions
12:53 AM 28.9 °F - 15.1 °F 56% 30.07 in 10.0 mi Calm Calm - N/A   Partly Cloudy
1:53 AM 28.0 °F - 12.0 °F 51% 30.08 in 10.0 mi Calm Calm - N/A   Clear
2:53 AM 28.0 °F - 10.0 °F 47% 30.08 in 10.0 mi Calm Calm - N/A   Clear
3:53 AM 26.1 °F 18.4 °F 8.1 °F 47% 30.10 in 10.0 mi West 6.9 mph - N/A   Clear
4:53 AM 26.1 °F 21.9 °F 5.0 °F 41% 30.11 in 10.0 mi NW 3.5 mph - N/A   Clear
5:53 AM 25.0 °F - 6.1 °F 45% 30.13 in 10.0 mi Calm Calm - N/A   Clear
6:53 AM 26.1 °F - 5.0 °F 41% 30.15 in 10.0 mi Calm Calm - N/A   Clear
7:53 AM 26.1 °F - 7.0 °F 44% 30.17 in 10.0 mi Calm Calm - N/A   Clear
8:53 AM 28.9 °F 23.9 °F 8.1 °F 41% 30.18 in 10.0 mi Variable 4.6 mph - N/A   Clear
9:53 AM 33.1 °F 26.9 °F 6.1 °F 32% 30.19 in 10.0 mi West 6.9 mph - N/A   Clear
10:53 AM 36.0 °F 29.6 °F 5.0 °F 27% 30.20 in 10.0 mi WNW 8.1 mph - N/A   Clear
11:53 AM 39.0 °F 33.4 °F 6.1 °F 26% 30.20 in 10.0 mi WNW 8.1 mph - 0.00 in   Clear
1:53 PM 45.0 °F 40.6 °F -0.0 °F 15% 30.14 in 10.0 mi North 8.1 mph 20.7 mph 0.00 in   Clear
2:53 PM 46.0 °F 40.2 °F -0.9 °F 14% 30.14 in 10.0 mi WNW 12.7 mph 21.9 mph N/A   Clear
3:53 PM 46.0 °F 39.9 °F -4.0 °F 12% 30.14 in 10.0 mi West 13.8 mph 18.4 mph N/A   Clear
4:53 PM 46.0 °F 40.6 °F 1.0 °F 16% 30.15 in 10.0 mi West 11.5 mph - N/A   Clear
5:53 PM 43.0 °F 36.0 °F 3.0 °F 19% 30.18 in 10.0 mi West 13.8 mph 19.6 mph N/A   Clear
6:53 PM 39.9 °F 33.9 °F 5.0 °F 23% 30.22 in 10.0 mi West 9.2 mph - N/A   Clear
8:53 PM 37.0 °F 34.5 °F 7.0 °F 29% 30.25 in 10.0 mi WSW 3.5 mph - N/A   Clear
9:53 PM 36.0 °F 33.3 °F 8.1 °F 31% 30.27 in 10.0 mi West 3.5 mph - N/A   Clear
10:53 PM 35.1 °F - 9.0 °F 34% 30.27 in 10.0 mi Calm Calm - N/A   Clear